Main page
METAR-TAF:

METAR-TAF

Airports :

Altamira Airport

Altamira, Pará, Brazil

latitude: 03-12S, longitude: 052-12W, elevation: 74 m

Current weather observation

The report was made 10 hours and 33 minutes ago, at 21:00 UTC
Calm wind
Temperature 28°C
Humidity 89%
Pressure 1008 hPa
Visibility 10 km or more
Few clouds at a height of 2500 ft

METAR: SBHT 182100Z 00000KT 9999 FEW025 28/26 Q1008

Time: 04:33 (07:33 UTC)


TAF: missing

Weather observations and forecasts of more than 4000 airports (METAR and TAF reports).

The available stations are represented by yellow and red dots on the map.

Hover mouse over dot to see the name of the station.

Then click to see weather observations and forecasts.

To change the map : click on the green buttons with a black cross to zoom in, on the green button with a dash to zoom out, or on the green arrows for adjacent maps.


METAR-TAF: